DW9716 Weather Reports


time (UTC)temp
F
wind
direction
speed
knots
gust
knots
rain 1hr
in
rain 24hr
in
rain mn
in
humidity
%
barometer
mb
20260506084607 51 146 0.0 0.0 0.00 0.00 0.00 94 1019.4
20260506083031 51 146 0.0 0.0 0.00 0.00 0.00 95 1019.4
20260506081536 0 0.0 0.0 0.00 0.00 0.00 1019.3
20260506073014 0 0.0 0.0 0.00 0.00 0.00 1019.5
20260506071508 0 0.0 0.0 0.00 0.00 0.00 1019.5
20260506061558 47 147 0.0 0.0 0.00 0.00 0.00 99 1019.7
20260506044549 45 146 0.0 0.0 0.00 0.00 0.00 96 1019.9
20260506043049 45 148 0.0 0.0 0.00 0.00 0.00 94 1019.8
20260506041558 45 150 0.0 0.0 0.00 0.00 0.00 93 1019.7
20260506040045 45 148 0.0 0.0 0.00 0.00 0.00 92 1019.6
20260506034544 46 156 0.0 0.0 0.00 0.00 0.00 90 1019.5
20260506033042 46 142 0.0 0.0 0.00 0.00 0.00 89 1019.4
20260506031542 45 123 0.0 0.0 0.00 0.00 0.00 90 1019.0
20260506030039 45 155 0.0 0.0 0.00 0.00 0.00 90 1018.9
20260506024538 45 153 0.0 0.0 0.00 0.00 0.00 89 1018.9
20260506023051 45 141 0.0 0.0 0.00 0.00 0.00 89 1018.8
20260506021559 45 360 0.0 0.0 0.00 0.00 0.00 87 1018.8
20260506020032 45 149 0.0 0.0 0.00 0.00 0.00 87 1018.6
20260506014530 46 151 0.0 0.0 0.00 0.00 0.00 87 1018.4
20260506013033 46 161 0.0 0.0 0.00 0.00 0.00 86 1018.0
20260506011526 46 159 0.0 0.0 0.00 0.00 0.00 87 1017.9
20260506010024 45 143 0.0 0.0 0.00 0.00 0.00 87 1017.6
20260506004527 45 148 0.0 0.0 0.00 0.00 0.00 87 1017.2
20260506003021 45 140 0.0 0.0 0.00 0.00 0.00 87 1017.0
20260506001518 44 148 0.0 0.0 0.00 0.00 0.00 88 1016.6
20260506000016 44 158 0.0 0.0 0.00 0.00 0.00 87 1016.4
20260505234516 45 128 0.0 0.0 0.00 0.00 0.00 86 1016.3
20260505233014 46 148 0.0 0.0 0.00 0.00 0.00 85 1016.1
20260505231529 47 150 0.0 0.0 0.00 0.00 0.00 83 1015.7
20260505230021 47 360 0.0 0.0 0.00 0.00 0.00 82 1015.3
20260505224513 48 149 0.0 0.0 0.00 0.00 0.00 81 1015.3
20260505223008 48 150 0.0 0.0 0.00 0.00 0.00 79 1015.0
20260505221506 49 157 0.0 0.0 0.00 0.00 0.00 78 1014.8
20260505220004 50 143 0.0 0.0 0.00 0.00 0.00 76 1014.5
20260505214502 51 153 0.0 0.0 0.00 0.00 0.00 73 1014.3
20260505213002 53 360 0.0 0.0 0.00 0.00 0.00 70 1014.0
20260505211558 54 146 0.0 0.0 0.00 0.00 0.00 66 1013.6
20260505210057 55 138 0.0 0.0 0.00 0.00 0.00 60 1013.5
20260505204556 56 142 0.0 0.0 0.00 0.00 0.00 55 1013.4
20260505203120 56 144 0.0 0.0 0.00 0.00 0.00 52 1013.4
20260505201601 55 155 0.0 0.0 0.00 0.00 0.00 46 1013.2
20260505200056 56 136 0.0 0.0 0.00 0.00 0.00 47 1013.1
20260505194553 56 153 0.0 0.0 0.00 0.00 0.00 47 1012.9
20260505193051 56 151 0.0 0.0 0.00 0.00 0.00 50 1012.8
20260505191600 56 360 0.0 0.0 0.00 0.00 0.00 50 1012.5
20260505190048 56 151 0.0 0.0 0.00 0.00 0.00 51 1012.3
20260505184547 56 149 0.0 0.0 0.00 0.00 0.00 52 1012.3
20260505183047 56 138 0.0 0.0 0.00 0.00 0.00 52 1012.3
20260505181547 56 154 0.0 0.0 0.00 0.00 0.00 52 1012.2
20260505180049 57 360 0.0 0.0 0.00 0.00 0.00 51 1012.1
20260505174545 56 150 0.0 0.0 0.00 0.00 0.00 51 1012.1
20260505173043 56 134 0.0 0.0 0.00 0.00 0.00 48 1012.0
20260505171545 57 163 0.0 0.0 0.00 0.00 0.00 48 1011.9
20260505170100 57 144 0.0 0.0 0.00 0.00 0.00 50 1011.8
20260505164541 56 360 0.0 0.0 0.00 0.00 0.00 47 1011.7
20260505163037 56 360 0.0 0.0 0.00 0.00 0.00 46 1011.7
20260505161534 55 360 0.0 0.0 0.00 0.00 0.00 47 1011.4
20260505153028 55 360 0.0 0.0 0.00 0.00 0.00 54 1011.1
20260505151525 55 152 0.0 0.0 0.00 0.00 0.00 54 1010.8
20260505124502 50 160 0.0 0.0 0.00 0.00 0.00 79 1009.6
20260505123059 49 360 0.0 0.0 0.00 0.00 0.00 81 1009.2
20260505121624 48 155 0.0 0.0 0.00 0.00 0.00 82 1009.0
20260505120055 47 157 0.0 0.0 0.00 0.00 0.00 83 1009.0
20260505114551 46 140 0.0 0.0 0.00 0.00 0.00 84 1009.0
20260505113048 45 161 0.0 0.0 0.00 0.00 0.00 85 1008.7
20260505111546 45 145 0.0 0.0 0.00 0.00 0.00 86 1008.2
20260505101551 43 146 0.0 0.0 0.00 0.00 0.00 88 1007.8
20260505100037 42 136 0.0 0.0 0.00 0.00 0.00 88 1007.7
20260505094538 43 360 0.0 0.0 0.00 0.00 0.00 86 1007.6
20260505093040 43 145 0.0 0.0 0.00 0.00 0.00 86 1007.0
20260505091531 42 149 0.0 0.0 0.00 0.00 0.00 88 1006.6
20260505090039 41 134 0.0 0.0 0.00 0.00 0.00 89 1006.8